Location: Molveno
(46.1500°N, 10.9667°E)
Time: 17:00:49
(UTC+00:00)

Cosmos 2333 - Pass Details

Date: 05 July 2020
Orbit: 828 x 867 km, 70.9° (Epoch: 10 August)

Event Time Altitude Azimuth Distance (km) Brightness Sun altitude
Rises 20:29:06 0° 196° (SSW) 3,368 7.0 -10.9°
Reaches altitude 10° 20:31:32 10° 194° (SSW) 2,443 6.3 -11.2°
Maximum altitude 20:37:05 69° 113° (ESE) 904 4.2 -11.8°
Drops below altitude 10° 20:42:45 10° 31° (NNE) 2,486 6.9 -12.4°
Sets 20:45:14 0° 29° (NNE) 3,432 7.7 -12.7°
